contact:dominique.lefevre@mio.osupytheas.fr, maurice.libes@osupytheas.fr, didier.mallarino@osupytheas.fr
Project:EMSO http://www.emso-fr.org/EMSO-France
Depth: 2436.0 m
Title:EMSO Ligure Ouest : Data MII capteur CSTAR
DateTime,Latitude,Longitude,Instrument_Serial,Reference_Counts,Signal_Counts,Corrected_Signal_raw_counts,Calculated_Beam_c_inverse_meters,Internal_thermistor_counts
DateTime,Latitude,Longitude,Instrument_Serial,Reference_Counts,Signal_Counts,Corrected_Signal_raw_counts,Calculated_Beam_c_inverse_meters,Internal_thermistor_counts
2019-08-20T00:01:27,42.805,6.029,CST-1368DR,8241,11530,15414,0.052,550
2019-08-20T00:04:29,42.805,6.029,CST-1368DR,8241,11498,15370,0.064,551
2019-08-20T00:07:31,42.805,6.029,CST-1368DR,8241,11527,15409,0.053,551
2019-08-20T00:10:32,42.805,6.029,CST-1368DR,8241,11530,15414,0.052,551
2019-08-20T00:13:34,42.805,6.029,CST-1368DR,8241,11529,15413,0.052,551
2019-08-20T00:16:36,42.805,6.029,CST-1368DR,8241,11532,15417,0.051,551
2019-08-20T00:19:37,42.805,6.029,CST-1368DR,8241,11531,15416,0.052,551
2019-08-20T00:22:39,42.805,6.029,CST-1368DR,8241,11529,15413,0.052,551
2019-08-20T00:25:40,42.805,6.029,CST-1368DR,8241,11532,15416,0.052,551
2019-08-20T00:28:42,42.805,6.029,CST-1368DR,8241,11533,15418,0.051,551
2019-08-20T00:31:44,42.805,6.029,CST-1368DR,8241,11531,15416,0.052,551
2019-08-20T00:34:45,42.805,6.029,CST-1368DR,8241,11531,15415,0.052,551
2019-08-20T00:37:47,42.805,6.029,CST-1368DR,8241,11533,15418,0.051,551
2019-08-20T00:40:49,42.805,6.029,CST-1368DR,8241,11531,15415,0.052,550
2019-08-20T00:43:50,42.805,6.029,CST-1368DR,8241,11528,15411,0.053,551
2019-08-20T00:46:52,42.805,6.029,CST-1368DR,8241,11531,15415,0.052,551
2019-08-20T00:49:54,42.805,6.029,CST-1368DR,8241,11530,15414,0.052,551
2019-08-20T00:52:55,42.805,6.029,CST-1368DR,8241,11531,15415,0.052,551
2019-08-20T00:55:57,42.805,6.029,CST-1368DR,8241,11533,15418,0.051,551
2019-08-20T00:58:59,42.805,6.029,CST-1368DR,8241,11533,15418,0.051,551
2019-08-20T01:02:00,42.805,6.029,CST-1368DR,8241,11534,15419,0.051,551
2019-08-20T01:05:02,42.805,6.029,CST-1368DR,8241,11533,15417,0.051,551
2019-08-20T01:08:04,42.805,6.029,CST-1368DR,8241,11534,15419,0.051,551
2019-08-20T01:11:05,42.805,6.029,CST-1368DR,8241,11533,15418,0.051,551
2019-08-20T01:14:07,42.805,6.029,CST-1368DR,8241,11534,15419,0.051,550
2019-08-20T01:17:08,42.805,6.029,CST-1368DR,8241,11533,15418,0.051,551
2019-08-20T01:20:10,42.805,6.029,CST-1368DR,8241,11533,15418,0.051,551
2019-08-20T01:23:12,42.805,6.029,CST-1368DR,8241,11532,15417,0.051,551
2019-08-20T01:26:13,42.805,6.029,CST-1368DR,8241,11533,15418,0.051,551
2019-08-20T01:29:15,42.805,6.029,CST-1368DR,8241,11531,15416,0.052,551
2019-08-20T01:32:17,42.805,6.029,CST-1368DR,8241,11533,15417,0.051,551
2019-08-20T01:35:18,42.805,6.029,CST-1368DR,8240,11530,15416,0.052,551
2019-08-20T01:38:20,42.805,6.029,CST-1368DR,8240,11532,15418,0.051,551
2019-08-20T01:41:22,42.805,6.029,CST-1368DR,8240,11529,15415,0.052,551
2019-08-20T01:44:23,42.805,6.029,CST-1368DR,8240,11531,15417,0.051,550
2019-08-20T01:47:25,42.805,6.029,CST-1368DR,8240,11532,15418,0.051,551
2019-08-20T01:50:26,42.805,6.029,CST-1368DR,8240,11529,15414,0.052,551
2019-08-20T01:53:28,42.805,6.029,CST-1368DR,8240,11530,15415,0.052,551
2019-08-20T01:56:30,42.805,6.029,CST-1368DR,8240,11527,15412,0.053,551
2019-08-20T01:59:31,42.805,6.029,CST-1368DR,8240,11531,15416,0.052,550
2019-08-20T02:02:33,42.805,6.029,CST-1368DR,8240,11533,15419,0.051,550
2019-08-20T02:05:35,42.805,6.029,CST-1368DR,8240,11529,15414,0.052,550
2019-08-20T02:08:36,42.805,6.029,CST-1368DR,8240,11532,15418,0.051,551
2019-08-20T02:11:38,42.805,6.029,CST-1368DR,8240,11532,15418,0.051,551
2019-08-20T02:14:39,42.805,6.029,CST-1368DR,8240,11532,15418,0.051,551
2019-08-20T02:17:41,42.805,6.029,CST-1368DR,8240,11533,15419,0.051,551
2019-08-20T02:20:43,42.805,6.029,CST-1368DR,8240,11530,15415,0.052,551
2019-08-20T02:23:44,42.805,6.029,CST-1368DR,8240,11532,15418,0.051,551
2019-08-20T02:26:46,42.805,6.029,CST-1368DR,8240,11531,15417,0.051,551
2019-08-20T02:29:48,42.805,6.029,CST-1368DR,8240,11531,15417,0.051,551
2019-08-20T02:32:49,42.805,6.029,CST-1368DR,8240,11531,15417,0.051,551
2019-08-20T02:35:51,42.805,6.029,CST-1368DR,8240,11533,15419,0.051,551
2019-08-20T02:38:53,42.805,6.029,CST-1368DR,8240,11531,15417,0.051,551
2019-08-20T02:41:54,42.805,6.029,CST-1368DR,8240,11531,15417,0.051,551
2019-08-20T02:44:56,42.805,6.029,CST-1368DR,8240,11531,15416,0.052,551
2019-08-20T02:47:57,42.805,6.029,CST-1368DR,8240,11527,15412,0.053,551
2019-08-20T02:50:59,42.805,6.029,CST-1368DR,8240,11531,15416,0.052,551
2019-08-20T02:54:01,42.805,6.029,CST-1368DR,8240,11531,15417,0.051,551
2019-08-20T02:57:02,42.805,6.029,CST-1368DR,8240,11532,15418,0.051,551
2019-08-20T03:00:04,42.805,6.029,CST-1368DR,8240,11532,15418,0.051,551
2019-08-20T03:03:06,42.805,6.029,CST-1368DR,8240,11531,15417,0.051,551
2019-08-20T03:06:07,42.805,6.029,CST-1368DR,8240,11531,15416,0.052,551
2019-08-20T03:09:09,42.805,6.029,CST-1368DR,8240,11531,15417,0.051,551
2019-08-20T03:12:11,42.805,6.029,CST-1368DR,8240,11530,15416,0.052,551
2019-08-20T03:15:12,42.805,6.029,CST-1368DR,8240,11530,15415,0.052,551
2019-08-20T03:18:14,42.805,6.029,CST-1368DR,8240,11531,15417,0.051,551
2019-08-20T03:21:16,42.805,6.029,CST-1368DR,8240,11531,15417,0.051,551
2019-08-20T03:24:17,42.805,6.029,CST-1368DR,8240,11530,15416,0.052,551
2019-08-20T03:27:19,42.805,6.029,CST-1368DR,8240,11529,15415,0.052,551
2019-08-20T03:30:20,42.805,6.029,CST-1368DR,8240,11531,15416,0.052,551
2019-08-20T03:33:22,42.805,6.029,CST-1368DR,8240,11532,15419,0.051,551
2019-08-20T03:36:24,42.805,6.029,CST-1368DR,8240,11531,15417,0.051,551
2019-08-20T03:39:25,42.805,6.029,CST-1368DR,8239,11531,15418,0.051,551
2019-08-20T03:42:27,42.805,6.029,CST-1368DR,8240,11531,15417,0.051,551
2019-08-20T03:45:29,42.805,6.029,CST-1368DR,8240,11531,15416,0.052,551
2019-08-20T03:48:31,42.805,6.029,CST-1368DR,8239,11527,15413,0.052,551
2019-08-20T03:51:32,42.805,6.029,CST-1368DR,8239,11530,15418,0.051,551
2019-08-20T03:54:34,42.805,6.029,CST-1368DR,8239,11521,15405,0.054,551
2019-08-20T03:57:35,42.805,6.029,CST-1368DR,8240,11529,15415,0.052,551
2019-08-20T04:00:37,42.805,6.029,CST-1368DR,8240,11530,15416,0.052,551
2019-08-20T04:03:39,42.805,6.029,CST-1368DR,8239,11530,15417,0.051,550
2019-08-20T04:06:40,42.805,6.029,CST-1368DR,8239,11530,15418,0.051,551
2019-08-20T04:09:42,42.805,6.029,CST-1368DR,8239,11531,15418,0.051,551
2019-08-20T04:12:44,42.805,6.029,CST-1368DR,8239,11531,15418,0.051,550
2019-08-20T04:15:45,42.805,6.029,CST-1368DR,8239,11529,15416,0.052,551
2019-08-20T04:18:47,42.805,6.029,CST-1368DR,8239,11528,15414,0.052,551
2019-08-20T04:21:49,42.805,6.029,CST-1368DR,8239,11531,15418,0.051,551
2019-08-20T04:24:50,42.805,6.029,CST-1368DR,8239,11529,15416,0.052,551
2019-08-20T04:27:52,42.805,6.029,CST-1368DR,8239,11531,15418,0.051,551
2019-08-20T04:30:53,42.805,6.029,CST-1368DR,8239,11531,15419,0.051,551
2019-08-20T04:33:55,42.805,6.029,CST-1368DR,8239,11527,15413,0.052,551
2019-08-20T04:36:57,42.805,6.029,CST-1368DR,8239,11525,15411,0.053,551
2019-08-20T04:39:59,42.805,6.029,CST-1368DR,8239,11529,15416,0.052,551
2019-08-20T04:43:00,42.805,6.029,CST-1368DR,8239,11530,15417,0.051,551
2019-08-20T04:46:02,42.805,6.029,CST-1368DR,8239,11531,15418,0.051,551
2019-08-20T04:49:03,42.805,6.029,CST-1368DR,8239,11531,15419,0.051,551
2019-08-20T04:52:05,42.805,6.029,CST-1368DR,8239,11531,15419,0.051,551
2019-08-20T04:55:07,42.805,6.029,CST-1368DR,8239,11529,15416,0.052,551
2019-08-20T04:58:08,42.805,6.029,CST-1368DR,8239,11529,15416,0.052,551
2019-08-20T05:01:10,42.805,6.029,CST-1368DR,8239,11529,15416,0.052,551
2019-08-20T05:04:12,42.805,6.029,CST-1368DR,8239,11527,15413,0.052,551
2019-08-20T05:07:14,42.805,6.029,CST-1368DR,8239,11529,15416,0.052,551
2019-08-20T05:10:15,42.805,6.029,CST-1368DR,8239,11529,15416,0.052,550
2019-08-20T05:13:17,42.805,6.029,CST-1368DR,8239,11529,15416,0.052,551
2019-08-20T05:16:18,42.805,6.029,CST-1368DR,8239,11530,15417,0.051,550
2019-08-20T05:19:20,42.805,6.029,CST-1368DR,8239,11527,15413,0.052,550
2019-08-20T05:22:22,42.805,6.029,CST-1368DR,8239,11527,15414,0.052,551
2019-08-20T05:25:23,42.805,6.029,CST-1368DR,8239,11530,15417,0.051,551
2019-08-20T05:28:25,42.805,6.029,CST-1368DR,8239,11530,15418,0.051,551
2019-08-20T05:31:27,42.805,6.029,CST-1368DR,8239,11529,15415,0.052,550
2019-08-20T05:34:28,42.805,6.029,CST-1368DR,8239,11531,15419,0.051,551
2019-08-20T05:37:30,42.805,6.029,CST-1368DR,8239,11527,15413,0.052,551
2019-08-20T05:40:32,42.805,6.029,CST-1368DR,8239,11531,15418,0.051,551
2019-08-20T05:43:33,42.805,6.029,CST-1368DR,8239,11530,15417,0.051,551
2019-08-20T05:46:35,42.805,6.029,CST-1368DR,8239,11527,15413,0.052,551
2019-08-20T05:49:36,42.805,6.029,CST-1368DR,8239,11529,15416,0.052,551
2019-08-20T05:52:38,42.805,6.029,CST-1368DR,8239,11529,15415,0.052,551
2019-08-20T05:55:40,42.805,6.029,CST-1368DR,8239,11530,15417,0.051,551
2019-08-20T05:58:41,42.805,6.029,CST-1368DR,8239,11530,15417,0.051,551
2019-08-20T06:01:43,42.805,6.029,CST-1368DR,8239,11527,15414,0.052,551
2019-08-20T06:04:45,42.805,6.029,CST-1368DR,8239,11530,15417,0.051,551
2019-08-20T06:07:46,42.805,6.029,CST-1368DR,8239,11527,15413,0.052,551
2019-08-20T06:10:48,42.805,6.029,CST-1368DR,8239,11530,15418,0.051,551
2019-08-20T06:13:50,42.805,6.029,CST-1368DR,8239,11531,15418,0.051,550
2019-08-20T06:16:51,42.805,6.029,CST-1368DR,8239,11532,15419,0.051,551
2019-08-20T06:19:53,42.805,6.029,CST-1368DR,8239,11531,15418,0.051,551
2019-08-20T06:22:54,42.805,6.029,CST-1368DR,8239,11531,15418,0.051,551
2019-08-20T06:25:56,42.805,6.029,CST-1368DR,8239,11531,15418,0.051,551
2019-08-20T06:28:58,42.805,6.029,CST-1368DR,8239,11530,15417,0.051,551
2019-08-20T06:31:59,42.805,6.029,CST-1368DR,8239,11530,15418,0.051,551
2019-08-20T06:35:01,42.805,6.029,CST-1368DR,8239,11530,15418,0.051,551
2019-08-20T06:38:03,42.805,6.029,CST-1368DR,8239,11530,15418,0.051,551
2019-08-20T06:41:04,42.805,6.029,CST-1368DR,8239,11531,15418,0.051,551
2019-08-20T06:44:06,42.805,6.029,CST-1368DR,8239,11531,15418,0.051,551
2019-08-20T06:47:07,42.805,6.029,CST-1368DR,8239,11530,15417,0.051,551
2019-08-20T06:50:09,42.805,6.029,CST-1368DR,8239,11530,15417,0.051,551
2019-08-20T06:53:11,42.805,6.029,CST-1368DR,8239,11523,15407,0.054,550
2019-08-20T06:56:12,42.805,6.029,CST-1368DR,8239,11529,15416,0.052,551
2019-08-20T06:59:14,42.805,6.029,CST-1368DR,8238,11530,15419,0.051,550
2019-08-20T07:02:16,42.805,6.029,CST-1368DR,8238,11531,15420,0.051,551
2019-08-20T07:05:17,42.805,6.029,CST-1368DR,8239,11531,15418,0.051,551
2019-08-20T07:08:19,42.805,6.029,CST-1368DR,8238,11530,15418,0.051,551
2019-08-20T07:11:21,42.805,6.029,CST-1368DR,8238,11530,15419,0.051,551
2019-08-20T07:14:22,42.805,6.029,CST-1368DR,8238,11530,15418,0.051,551
2019-08-20T07:17:24,42.805,6.029,CST-1368DR,8238,11530,15419,0.051,551
2019-08-20T07:20:26,42.805,6.029,CST-1368DR,8238,11530,15418,0.051,551
2019-08-20T07:23:27,42.805,6.029,CST-1368DR,8238,11529,15418,0.051,551
2019-08-20T07:26:29,42.805,6.029,CST-1368DR,8238,11529,15417,0.051,551
2019-08-20T07:29:30,42.805,6.029,CST-1368DR,8238,11528,15416,0.052,551
2019-08-20T07:32:32,42.805,6.029,CST-1368DR,8238,11530,15418,0.051,551
2019-08-20T07:35:34,42.805,6.029,CST-1368DR,8238,11530,15419,0.051,551
2019-08-20T07:38:35,42.805,6.029,CST-1368DR,8238,11529,15418,0.051,550
2019-08-20T07:41:37,42.805,6.029,CST-1368DR,8238,11525,15412,0.053,551
2019-08-20T07:44:39,42.805,6.029,CST-1368DR,8238,11530,15419,0.051,551
2019-08-20T07:47:40,42.805,6.029,CST-1368DR,8238,11529,15417,0.051,551
2019-08-20T07:50:42,42.805,6.029,CST-1368DR,8238,11511,15393,0.058,551
2019-08-20T07:53:44,42.805,6.029,CST-1368DR,8238,11518,15403,0.055,551
2019-08-20T07:56:45,42.805,6.029,CST-1368DR,8238,11527,15414,0.052,551
2019-08-20T07:59:47,42.805,6.029,CST-1368DR,8238,11528,15416,0.052,551
2019-08-20T08:02:48,42.805,6.029,CST-1368DR,8238,11529,15417,0.051,551
2019-08-20T08:05:50,42.805,6.029,CST-1368DR,8238,11530,15419,0.051,551
2019-08-20T08:08:52,42.805,6.029,CST-1368DR,8238,11529,15418,0.051,551
2019-08-20T08:11:53,42.805,6.029,CST-1368DR,8238,11529,15417,0.051,550
2019-08-20T08:14:55,42.805,6.029,CST-1368DR,8238,11530,15419,0.051,550
2019-08-20T08:17:57,42.805,6.029,CST-1368DR,8238,11530,15418,0.051,551
2019-08-20T08:20:58,42.805,6.029,CST-1368DR,8238,11529,15418,0.051,551
2019-08-20T08:24:00,42.805,6.029,CST-1368DR,8238,11530,15419,0.051,551
2019-08-20T08:27:02,42.805,6.029,CST-1368DR,8238,11529,15417,0.051,551
2019-08-20T08:30:03,42.805,6.029,CST-1368DR,8238,11531,15420,0.051,551
2019-08-20T08:33:05,42.805,6.029,CST-1368DR,8238,11530,15419,0.051,551
2019-08-20T08:36:07,42.805,6.029,CST-1368DR,8238,11525,15412,0.053,551
2019-08-20T08:39:08,42.805,6.029,CST-1368DR,8238,11530,15419,0.051,551
2019-08-20T08:42:10,42.805,6.029,CST-1368DR,8238,11530,15419,0.051,551
2019-08-20T08:45:12,42.805,6.029,CST-1368DR,8238,11530,15418,0.051,551
2019-08-20T08:48:13,42.805,6.029,CST-1368DR,8238,11528,15416,0.052,551
2019-08-20T08:51:15,42.805,6.029,CST-1368DR,8237,11530,15420,0.051,551
2019-08-20T08:54:17,42.805,6.029,CST-1368DR,8238,11530,15419,0.051,551
2019-08-20T08:57:18,42.805,6.029,CST-1368DR,8237,11530,15420,0.051,551
2019-08-20T09:00:20,42.805,6.029,CST-1368DR,8237,11529,15420,0.051,550
2019-08-20T09:03:21,42.805,6.029,CST-1368DR,8237,11528,15418,0.051,550
2019-08-20T09:06:23,42.805,6.029,CST-1368DR,8237,11529,15420,0.051,551
2019-08-20T09:09:25,42.805,6.029,CST-1368DR,8237,11528,15418,0.051,551
2019-08-20T09:12:26,42.805,6.029,CST-1368DR,8237,11529,15419,0.051,551
2019-08-20T09:15:28,42.805,6.029,CST-1368DR,8237,11529,15419,0.051,551
2019-08-20T09:18:30,42.805,6.029,CST-1368DR,8237,11529,15419,0.051,551
2019-08-20T09:21:31,42.805,6.029,CST-1368DR,8237,11529,15420,0.051,551
2019-08-20T09:24:33,42.805,6.029,CST-1368DR,8237,11526,15416,0.052,551
2019-08-20T09:27:35,42.805,6.029,CST-1368DR,8237,11529,15419,0.051,551
2019-08-20T09:30:36,42.805,6.029,CST-1368DR,8237,11528,15418,0.051,551
2019-08-20T09:33:38,42.805,6.029,CST-1368DR,8237,11529,15419,0.051,551
2019-08-20T09:36:39,42.805,6.029,CST-1368DR,8237,11529,15419,0.051,551
2019-08-20T09:39:41,42.805,6.029,CST-1368DR,8237,11527,15416,0.052,551
2019-08-20T09:42:43,42.805,6.029,CST-1368DR,8237,11526,15416,0.052,551
2019-08-20T09:45:44,42.805,6.029,CST-1368DR,8237,11528,15418,0.051,551
2019-08-20T09:48:46,42.805,6.029,CST-1368DR,8237,11527,15417,0.051,551
2019-08-20T09:51:48,42.805,6.029,CST-1368DR,8237,11529,15419,0.051,551
2019-08-20T09:54:49,42.805,6.029,CST-1368DR,8237,11529,15419,0.051,551
2019-08-20T09:57:51,42.805,6.029,CST-1368DR,8237,11527,15417,0.051,551
2019-08-20T10:00:53,42.805,6.029,CST-1368DR,8237,11528,15418,0.051,551
2019-08-20T10:03:55,42.805,6.029,CST-1368DR,8237,11529,15419,0.051,551
2019-08-20T10:06:56,42.805,6.029,CST-1368DR,8237,11526,15415,0.052,550
2019-08-20T10:09:58,42.805,6.029,CST-1368DR,8237,11527,15416,0.052,551
2019-08-20T10:12:59,42.805,6.029,CST-1368DR,8237,11528,15418,0.051,551
2019-08-20T10:16:01,42.805,6.029,CST-1368DR,8237,11526,15415,0.052,551
2019-08-20T10:19:03,42.805,6.029,CST-1368DR,8237,11527,15417,0.051,551
2019-08-20T10:22:04,42.805,6.029,CST-1368DR,8237,11529,15419,0.051,551
2019-08-20T10:25:06,42.805,6.029,CST-1368DR,8237,11526,15415,0.052,551
2019-08-20T10:28:08,42.805,6.029,CST-1368DR,8237,11527,15416,0.052,551
2019-08-20T10:31:09,42.805,6.029,CST-1368DR,8237,11527,15417,0.051,551
2019-08-20T10:34:11,42.805,6.029,CST-1368DR,8237,11527,15416,0.052,551
2019-08-20T10:37:13,42.805,6.029,CST-1368DR,8237,11527,15416,0.052,551
2019-08-20T10:40:14,42.805,6.029,CST-1368DR,8237,11527,15416,0.052,551
2019-08-20T10:43:16,42.805,6.029,CST-1368DR,8237,11525,15414,0.052,551
2019-08-20T10:46:18,42.805,6.029,CST-1368DR,8236,11526,15417,0.051,551
2019-08-20T10:49:19,42.805,6.029,CST-1368DR,8236,11528,15420,0.051,551
2019-08-20T10:52:21,42.805,6.029,CST-1368DR,8236,11527,15418,0.051,551
2019-08-20T10:55:22,42.805,6.029,CST-1368DR,8236,11526,15418,0.051,551
2019-08-20T10:58:24,42.805,6.029,CST-1368DR,8236,11526,15418,0.051,551
2019-08-20T11:01:26,42.805,6.029,CST-1368DR,8236,11527,15418,0.051,551
2019-08-20T11:04:27,42.805,6.029,CST-1368DR,8236,11527,15419,0.051,551
2019-08-20T11:07:29,42.805,6.029,CST-1368DR,8236,11527,15419,0.051,551
2019-08-20T11:10:31,42.805,6.029,CST-1368DR,8236,11527,15418,0.051,550
2019-08-20T11:13:32,42.805,6.029,CST-1368DR,8236,11529,15421,0.050,551
2019-08-20T11:16:34,42.805,6.029,CST-1368DR,8236,11527,15419,0.051,551
2019-08-20T11:19:36,42.805,6.029,CST-1368DR,8236,11527,15418,0.051,551
2019-08-20T11:22:37,42.805,6.029,CST-1368DR,8236,11527,15419,0.051,551
2019-08-20T11:25:39,42.805,6.029,CST-1368DR,8236,11528,15419,0.051,551
2019-08-20T11:28:41,42.805,6.029,CST-1368DR,8236,11527,15418,0.051,550
2019-08-20T11:31:42,42.805,6.029,CST-1368DR,8236,11527,15419,0.051,551
2019-08-20T11:34:44,42.805,6.029,CST-1368DR,8236,11526,15418,0.051,551
2019-08-20T11:37:46,42.805,6.029,CST-1368DR,8236,11526,15417,0.051,551
2019-08-20T11:40:47,42.805,6.029,CST-1368DR,8236,11523,15413,0.052,551
2019-08-20T11:43:49,42.805,6.029,CST-1368DR,8236,11523,15413,0.052,551
2019-08-20T11:46:51,42.805,6.029,CST-1368DR,8236,11526,15417,0.051,551
2019-08-20T11:49:52,42.805,6.029,CST-1368DR,8236,11527,15418,0.051,551
2019-08-20T11:52:54,42.805,6.029,CST-1368DR,8236,11527,15418,0.051,551
2019-08-20T11:55:56,42.805,6.029,CST-1368DR,8236,11525,15416,0.052,551
2019-08-20T11:58:57,42.805,6.029,CST-1368DR,8236,11527,15419,0.051,551
2019-08-20T12:01:59,42.805,6.029,CST-1368DR,8236,11525,15416,0.052,550
2019-08-20T12:05:01,42.805,6.029,CST-1368DR,8236,11526,15417,0.051,551
2019-08-20T12:08:02,42.805,6.029,CST-1368DR,8236,11527,15418,0.051,551
2019-08-20T12:11:04,42.805,6.029,CST-1368DR,8236,11527,15418,0.051,551
2019-08-20T12:14:06,42.805,6.029,CST-1368DR,8236,11526,15417,0.051,551
2019-08-20T12:17:07,42.805,6.029,CST-1368DR,8236,11523,15414,0.052,551
2019-08-20T12:20:09,42.805,6.029,CST-1368DR,8236,11524,15415,0.052,551
2019-08-20T12:23:11,42.805,6.029,CST-1368DR,8236,11527,15418,0.051,551
2019-08-20T12:26:12,42.805,6.029,CST-1368DR,8236,11528,15419,0.051,550
2019-08-20T12:29:14,42.805,6.029,CST-1368DR,8236,11523,15414,0.052,551
2019-08-20T12:32:16,42.805,6.029,CST-1368DR,8236,11525,15416,0.052,551
2019-08-20T12:35:17,42.805,6.029,CST-1368DR,8235,11524,15416,0.052,551
2019-08-20T12:38:19,42.805,6.029,CST-1368DR,8235,11525,15417,0.051,551
2019-08-20T12:41:21,42.805,6.029,CST-1368DR,8235,11526,15419,0.051,551
2019-08-20T12:44:23,42.805,6.029,CST-1368DR,8235,11526,15419,0.051,551
2019-08-20T12:47:25,42.805,6.029,CST-1368DR,8235,11528,15421,0.050,551
2019-08-20T12:50:26,42.805,6.029,CST-1368DR,8235,11526,15419,0.051,551
2019-08-20T12:53:28,42.805,6.029,CST-1368DR,8235,11526,15418,0.051,551
2019-08-20T12:56:29,42.805,6.029,CST-1368DR,8235,11526,15419,0.051,551
2019-08-20T12:59:31,42.805,6.029,CST-1368DR,8235,11528,15421,0.050,551
2019-08-20T13:02:33,42.805,6.029,CST-1368DR,8235,11527,15420,0.051,551
2019-08-20T13:05:34,42.805,6.029,CST-1368DR,8235,11526,15419,0.051,551
2019-08-20T13:08:36,42.805,6.029,CST-1368DR,8235,11527,15420,0.051,551
2019-08-20T13:11:38,42.805,6.029,CST-1368DR,8235,11526,15419,0.051,551
2019-08-20T13:14:39,42.805,6.029,CST-1368DR,8235,11527,15420,0.051,551
2019-08-20T13:17:41,42.805,6.029,CST-1368DR,8235,11528,15421,0.050,551
2019-08-20T13:20:43,42.805,6.029,CST-1368DR,8235,11526,15419,0.051,551
2019-08-20T13:23:44,42.805,6.029,CST-1368DR,8235,11527,15420,0.051,551
2019-08-20T13:26:46,42.805,6.029,CST-1368DR,8235,11527,15420,0.051,551
2019-08-20T13:29:48,42.805,6.029,CST-1368DR,8235,11526,15419,0.051,551
2019-08-20T13:32:49,42.805,6.029,CST-1368DR,8235,11524,15416,0.052,551
2019-08-20T13:35:51,42.805,6.029,CST-1368DR,8235,11527,15421,0.050,551
2019-08-20T13:38:52,42.805,6.029,CST-1368DR,8235,11527,15420,0.051,551
2019-08-20T13:41:54,42.805,6.029,CST-1368DR,8235,11525,15417,0.051,551
2019-08-20T13:44:56,42.805,6.029,CST-1368DR,8235,11524,15417,0.051,551
2019-08-20T13:47:57,42.805,6.029,CST-1368DR,8235,11526,15419,0.051,550
2019-08-20T13:50:59,42.805,6.029,CST-1368DR,8235,11525,15418,0.051,551
2019-08-20T13:54:01,42.805,6.029,CST-1368DR,8235,11527,15420,0.051,550
2019-08-20T13:57:02,42.805,6.029,CST-1368DR,8235,11524,15417,0.051,551
2019-08-20T14:00:04,42.805,6.029,CST-1368DR,8235,11525,15418,0.051,550
2019-08-20T14:03:06,42.805,6.029,CST-1368DR,8235,11524,15417,0.051,551
2019-08-20T14:06:07,42.805,6.029,CST-1368DR,8235,11524,15417,0.051,551
2019-08-20T14:09:09,42.805,6.029,CST-1368DR,8235,11526,15418,0.051,551
2019-08-20T14:12:10,42.805,6.029,CST-1368DR,8235,11524,15416,0.052,551
2019-08-20T14:15:12,42.805,6.029,CST-1368DR,8235,11525,15417,0.051,551
2019-08-20T14:18:14,42.805,6.029,CST-1368DR,8235,11524,15416,0.052,551
2019-08-20T14:21:15,42.805,6.029,CST-1368DR,8235,11525,15418,0.051,551
2019-08-20T14:24:17,42.805,6.029,CST-1368DR,8235,11522,15413,0.052,551
2019-08-20T14:27:19,42.805,6.029,CST-1368DR,8235,11523,15414,0.052,551
2019-08-20T14:30:20,42.805,6.029,CST-1368DR,8235,11524,15416,0.052,551
2019-08-20T14:33:22,42.805,6.029,CST-1368DR,8235,11526,15418,0.051,551
2019-08-20T14:36:24,42.805,6.029,CST-1368DR,8235,11525,15417,0.051,551
2019-08-20T14:39:25,42.805,6.029,CST-1368DR,8235,11526,15419,0.051,551
2019-08-20T14:42:27,42.805,6.029,CST-1368DR,8235,11525,15418,0.051,551
2019-08-20T14:45:28,42.805,6.029,CST-1368DR,8234,11524,15417,0.051,550
2019-08-20T14:48:30,42.805,6.029,CST-1368DR,8235,11525,15417,0.051,550
2019-08-20T14:51:32,42.805,6.029,CST-1368DR,8235,11526,15419,0.051,551
2019-08-20T14:54:33,42.805,6.029,CST-1368DR,8234,11524,15417,0.051,551
2019-08-20T14:57:35,42.805,6.029,CST-1368DR,8234,11519,15411,0.053,550
2019-08-20T15:00:37,42.805,6.029,CST-1368DR,8234,11525,15420,0.051,551
2019-08-20T15:03:38,42.805,6.029,CST-1368DR,8235,11525,15418,0.051,551
2019-08-20T15:06:40,42.805,6.029,CST-1368DR,8234,11524,15418,0.051,551
2019-08-20T15:09:42,42.805,6.029,CST-1368DR,8234,11526,15420,0.051,551
2019-08-20T15:12:43,42.805,6.029,CST-1368DR,8234,11526,15420,0.051,551
2019-08-20T15:15:45,42.805,6.029,CST-1368DR,8234,11524,15418,0.051,551
2019-08-20T15:18:47,42.805,6.029,CST-1368DR,8234,11525,15419,0.051,551
2019-08-20T15:21:48,42.805,6.029,CST-1368DR,8234,11526,15420,0.051,551
2019-08-20T15:24:50,42.805,6.029,CST-1368DR,8234,11524,15418,0.051,551
2019-08-20T15:27:52,42.805,6.029,CST-1368DR,8234,11523,15416,0.052,551
2019-08-20T15:30:54,42.805,6.029,CST-1368DR,8234,11524,15418,0.051,551
2019-08-20T15:33:55,42.805,6.029,CST-1368DR,8234,11524,15418,0.051,551
2019-08-20T15:36:57,42.805,6.029,CST-1368DR,8234,11521,15413,0.052,551
2019-08-20T15:39:59,42.805,6.029,CST-1368DR,8234,11526,15421,0.050,551
2019-08-20T15:43:00,42.805,6.029,CST-1368DR,8234,11524,15418,0.051,551
2019-08-20T15:46:02,42.805,6.029,CST-1368DR,8234,11524,15417,0.051,551
2019-08-20T15:49:04,42.805,6.029,CST-1368DR,8234,11524,15418,0.051,550
2019-08-20T15:52:05,42.805,6.029,CST-1368DR,8234,11520,15413,0.052,551
2019-08-20T15:55:07,42.805,6.029,CST-1368DR,8234,11523,15417,0.051,551
2019-08-20T15:58:09,42.805,6.029,CST-1368DR,8234,11523,15416,0.052,551
2019-08-20T16:01:10,42.805,6.029,CST-1368DR,8234,11516,15407,0.054,551
2019-08-20T16:04:12,42.805,6.029,CST-1368DR,8234,11524,15418,0.051,551
2019-08-20T16:07:13,42.805,6.029,CST-1368DR,8234,11522,15416,0.052,551
2019-08-20T16:10:15,42.805,6.029,CST-1368DR,8234,11524,15417,0.051,551
2019-08-20T16:13:17,42.805,6.029,CST-1368DR,8234,11521,15413,0.052,551
2019-08-20T16:16:18,42.805,6.029,CST-1368DR,8234,11519,15411,0.053,551
2019-08-20T16:19:20,42.805,6.029,CST-1368DR,8234,11523,15417,0.051,551
2019-08-20T16:22:22,42.805,6.029,CST-1368DR,8234,11523,15416,0.052,551
2019-08-20T16:25:23,42.805,6.029,CST-1368DR,8234,11525,15419,0.051,551
2019-08-20T16:28:25,42.805,6.029,CST-1368DR,8234,11523,15417,0.051,551
2019-08-20T16:31:27,42.805,6.029,CST-1368DR,8234,11525,15419,0.051,551
2019-08-20T16:34:28,42.805,6.029,CST-1368DR,8234,11524,15418,0.051,550
2019-08-20T16:37:30,42.805,6.029,CST-1368DR,8234,11526,15420,0.051,551